Home > Time Zones > World Clock > Weather > Spain > Lugo > Past weeks

Flag for Spain Weather past 2 weeks in Lugo, Galicia, Spain

Now
70 °F

Scattered clouds.


Feels Like: 70 °F
Forecast: 58 / 86 °F
Wind: 9 mph from West

Location: Santiago / Labacolla

Current Time: Aug 28, 2015 at 8:08:56 PM

Latest Report: Aug 28, 2015 at 7:30 PM


Visibility: N/A

Pressure: 30.04 "Hg

Humidity: 83%

Dew point: 64 °F

Location of LugoLocation

Historic Weather in Lugo — Graph

°F

Lugo temperature yesterday

Maximum temperature yesterday: 68 °F (at 7:30 PM)
Minimum temperature yesterday: 59 °F (at 1:02 AM)
Average temperature yesterday: 66 °F

Past Weeks' High & Low Weather Summary

 TemperatureHumidityPressure
High86 °F (Aug 20, 3:30 PM)100% (Aug 14, 8:30 AM)30.24 "Hg (Aug 14, 8:30 AM)
Low54 °F (Aug 14, 1:00 AM)37% (Aug 20, 3:00 PM)29.68 "Hg (Aug 23, 3:00 PM)
Average63 °F88%30.05 "Hg
* Reported Aug 13 7:00 PM — Aug 28 7:00 PM, Lugo, Weather by CustomWeather, © 2015

Note: Actual official high and low records may vary slightly from our data, if they occured in-between our weather recording intervals... More about our weather records

Advertising

Lugo weather history for previous 24 hours

 ConditionsComfort  
Time TempWeatherWind HumidityBarometerVisibility
7:00 PM
Fri, Aug 28
70 °FScattered clouds.7 mph88%30.04 "HgN/A
6:30 PM70 °FPartly sunny.5 mph88%30.04 "HgN/A
6:00 PM70 °FBroken clouds.6 mph94%30.04 "HgN/A
5:30 PM70 °FBroken clouds.8 mph88%30.07 "HgN/A
5:00 PM70 °FPartly sunny.7 mph94%30.07 "HgN/A
4:30 PM72 °FPartly sunny.7 mph88%30.04 "HgN/A
4:00 PM72 °FPartly sunny.9 mph88%30.07 "Hg6 mi
3:30 PM72 °FBroken clouds.9 mph88%30.04 "Hg6 mi
3:00 PM68 °FBroken clouds.8 mph94%30.07 "Hg6 mi
2:30 PM68 °FBroken clouds.6 mph94%30.07 "Hg4 mi
2:04 PM68 °FBroken clouds.9 mph94%30.07 "Hg4 mi
1:30 PM70 °FBroken clouds.9 mph94%30.07 "Hg5 mi
1:00 PM68 °FCloudy.8 mph94%30.07 "Hg6 mi
12:30 PM66 °FBroken clouds.12 mph100%30.07 "Hg2 mi
12:00 PM66 °FSleet. Broken clouds.6 mph100%30.07 "Hg1 mi
11:30 AM66 °FSleet. Broken clouds.No wind100%30.07 "Hg1 mi
11:00 AM64 °FSleet. Cloudy.No wind100%30.04 "Hg1 mi
10:30 AM64 °FSleet. Cloudy.No wind100%30.04 "Hg1 mi
10:00 AM63 °FMild.No wind100%30.04 "Hg2 mi
9:30 AM63 °FLight rain. Fog.No wind100%30.04 "Hg2 mi
9:00 AM63 °FLight rain. Fog.No wind100%30.04 "Hg3 mi
8:30 AM63 °FLight rain. Fog.1 mph100%30.04 "Hg2 mi
8:00 AM64 °FRain. Fog.5 mph100%30.01 "Hg2 mi
7:30 AM64 °FHeavy rain. Fog.2 mph100%30.01 "Hg3 mi
7:00 AM64 °FHeavy rain. Fog.1 mph100%30.01 "Hg3 mi
6:30 AM64 °FRain. Fog.2 mph100%30.01 "Hg3 mi
6:00 AM64 °FRain. Fog.1 mph100%30.01 "Hg3 mi
5:30 AM64 °FRain. Fog.3 mph100%30.01 "Hg3 mi
5:00 AM64 °FHeavy rain. Fog.2 mph100%30.01 "Hg3 mi
4:30 AM66 °FRain. Fog.2 mph94%30.01 "Hg3 mi
4:00 AM66 °FHeavy rain. Fog.7 mph94%30.01 "Hg3 mi
3:30 AM66 °FRain. Fog.6 mph94%30.01 "Hg3 mi
3:00 AM66 °FRain. Fog.15 mph94%30.01 "Hg3 mi
2:30 AM66 °FRain. Fog.7 mph100%30.01 "Hg3 mi
2:00 AM66 °FRain. Fog.12 mph100%29.98 "Hg3 mi
1:30 AM66 °FHeavy rain. Fog.12 mph100%29.98 "Hg3 mi
1:00 AM66 °FHeavy rain. Fog.8 mph100%29.98 "Hg2 mi
12:30 AM66 °FRain. Fog.8 mph100%29.98 "Hg2 mi
12:00 AM66 °FRain. Fog.12 mph100%29.98 "Hg2 mi
11:30 PM
Thu, Aug 27
66 °FRain. Fog.9 mph100%29.98 "Hg2 mi
11:00 PM66 °FRain. Fog.13 mph100%29.98 "Hg2 mi
10:30 PM66 °FRain. Fog.12 mph100%29.95 "Hg2 mi
10:00 PM66 °FRain. Fog.12 mph100%29.95 "Hg2 mi
9:30 PM66 °FRain. Fog.14 mph100%29.95 "Hg2 mi
9:00 PM66 °FRain. Broken clouds.16 mph100%29.95 "Hg2 mi
8:30 PM66 °FLight rain. Broken clouds.17 mph100%29.95 "Hg4 mi
8:00 PM68 °FPartly sunny.15 mph94%29.92 "HgN/A
Weather by CustomWeather, © 2015

See weather overviewHow to use our weather pages